{"data":{"norad_id":65440,"epoch":"2026-09-20T13:58:31.669536Z","epoch_age_seconds":107746,"freshness":"FRESH","line1":"1 65440U 25194G   26263.58231099  .00008991  00000+0  28048-3 0  9997","line2":"2 65440  97.2845 113.2749 0002001  92.4065 267.7407 15.33445516 59084","mean_motion":15.33445516,"eccentricity":0.0002001,"inclination_deg":97.2845,"raan_deg":113.2749,"arg_perigee_deg":92.4065,"mean_anomaly_deg":267.7407,"bstar":0.00028048,"rev_number":5908,"period_min":93.906173057667,"perigee_km":464.17221912989,"apogee_km":466.91105932131,"semimajor_km":6843.6786392256,"source":"CELESTRAK","updated_at":"2026-09-21T09:00:35.609580Z"}}